Date,TemperatureHighF,TemperatureAvgF,TemperatureLowF,DewpointHighF,DewpointAvgF,DewpointLowF,HumidityHigh,HumidityAvg,HumidityLow,PressureMaxIn,PressureMinIn,WindSpeedMaxMPH,WindSpeedAvgMPH,GustSpeedMaxMPH,PrecipitationSumIn
2013-5-1,65,52,40,44,40,35,82,65,46,30.33,30.18,7,5,15,0.00
2013-5-2,62,53,47,46,41,36,67,63,56,30.21,30.15,6,4,12,0.00
2013-5-3,65,54,45,50,44,40,84,69,56,30.16,30.08,5,3,8,0.00
2013-5-4,62,54,44,46,44,39,86,71,54,30.16,30.04,12,6,23,0.00
2013-5-5,65,55,45,51,46,41,95,73,52,30.25,30.16,6,3,10,0.00
2013-5-6,68,56,45,50,46,42,92,72,52,30.24,30.12,6,3,9,0.00
2013-5-7,81,63,49,57,52,46,93,70,37,30.11,29.94,8,4,10,0.00
2013-5-8,72,61,55,59,55,51,94,82,54,29.92,29.79,7,3,12,0.24
2013-5-9,62,56,51,52,46,40,91,71,49,29.95,29.85,7,4,16,0.00
2013-5-10,59,55,50,50,46,41,89,74,60,30.00,29.81,10,7,17,0.03
2013-5-11,58,52,49,48,47,46,92,83,66,30.00,29.84,9,5,23,0.32
2013-5-12,55,50,46,47,44,42,90,80,68,30.03,29.85,11,6,17,0.05
2013-5-13,57,53,48,52,48,43,95,82,65,29.95,29.82,10,7,21,0.11
2013-5-14,55,51,46,47,44,42,88,78,63,29.83,29.60,9,5,16,0.00
2013-5-15,62,54,47,49,46,41,90,75,55,29.66,29.47,11,6,16,0.03
2013-5-16,52,48,43,48,45,40,95,89,76,29.65,29.54,6,3,13,0.51
2013-5-17,50,48,47,48,46,45,96,95,90,29.75,29.57,5,4,8,0.57
2013-5-18,57,51,45,49,47,43,95,86,74,29.88,29.75,6,4,9,0.00
2013-5-19,62,53,42,51,47,41,96,80,65,29.91,29.86,6,4,12,0.00
2013-5-20,53,52,50,52,50,48,96,94,88,29.85,29.79,4,1,6,0.84
2013-5-21,51,50,48,50,48,47,97,96,95,29.96,29.82,7,4,11,0.08
2013-5-22,57,51,47,48,45,43,95,82,72,30.06,29.96,10,7,14,0.00
2013-5-23,53,47,42,44,41,39,90,78,63,29.95,29.84,9,5,14,0.08
2013-5-24,53,46,43,46,41,39,92,85,73,30.01,29.81,6,3,11,0.27
2013-5-25,55,48,40,48,43,38,95,84,71,30.10,30.03,8,4,11,0.08
2013-5-26,56,50,46,48,46,44,94,86,74,30.04,29.95,10,7,15,0.27
2013-5-27,67,56,45,50,42,31,95,65,30,29.94,29.80,6,3,11,0.00
2013-5-28,75,61,50,51,46,35,81,60,40,29.80,29.57,9,6,14,0.00
2013-5-29,56,52,50,53,49,47,93,89,83,29.68,29.59,6,4,12,0.00
2013-5-30,60,55,50,54,52,49,96,89,79,29.91,29.68,4,2,7,0.00
2013-5-31,64,56,51,55,51,48,97,87,71,30.05,29.91,7,5,12,0.00